Weather History for Crossville, TN

Change the Weather History Date:

Tuesday, September 3, 2013

  Actual Average Record
Temperature  
Mean Temperature 73 °F 71 °F  
Max Temperature 83 °F 81 °F 94 °F (1975)
Min Temperature 63 °F 62 °F 49 °F (1967)
Degree Days  
Heating Degree Days 0    
Month to date heating degree days 0  
Since 1 July heating degree days 0  
Cooling Degree Days 8    
Month to date cooling degree days 27  
Year to date cooling degree days 784  
Growing Degree Days 23 (Base 50)    
Moisture  
Dew Point 65 °F    
Average Humidity 74    
Maximum Humidity 100    
Minimum Humidity 47    
Precipitation  
Precipitation 0.03 in 0.12 in 2.00 in (1988)
Month to date precipitation 0.70 0.36  
Year to date precipitation 47.31 38.48  
Sea Level Pressure  
Sea Level Pressure 29.98 in    
Wind  
Wind Speed 3 mph (NW)    
Max Wind Speed 10 mph    
Max Gust Speed 14 mph    
Visibility 8 miles    
Events Rain , Thunderstorm    
T = Trace of Precipitation, MM = Missing Value Source: NWS Daily Summary

Daily Weather History Graph

Daily Weather History Graph

Search for Another Location

Airport:

Trip Planner

Search our weather history database for the weather conditions in past years. The results will help you decide how hot, cold, wet, or windy it might be!

Date:

Astronomy

Sep. 03, 2013 Rise Set
Actual Time 6:13 AM CDT 7:04 PM CDT
Civil Twilight 5:47 AM CDT 7:30 PM CDT
Nautical Twilight 5:16 AM CDT 8:01 PM CDT
Astronomical Twilight 4:45 AM CDT 8:33 PM CDT
Moon 4:28 AM CDT (9/3) 5:50 PM CDT (9/3)
Length of Visible Light 13h 42m
Length of Day
12h 50m
Waning Crescent, 3% of the Moon is Illuminated
Sep 3
Waning Crescent
Sep 5
New
Sep 12
First Quarter
Sep 19
Full
Sep 26
Last Quarter

Hourly Weather History & Observations

Time (CDT) Temp. Heat Index Dew Point Humidity Pressure Visibility Wind Dir Wind Speed Gust Speed Precip Events Conditions
12:00 AM 71.6 °F - 69.8 °F 94% 29.97 in 2.0 mi West 5.8 mph - 0.03 in Rain , Thunderstorm Heavy Thunderstorms and Rain
12:17 AM 69.8 °F - 66.2 °F 88% 29.96 in 1.2 mi West 4.6 mph - 0.22 in Rain , Thunderstorm Heavy Thunderstorms and Rain
12:38 AM 68.0 °F - 64.4 °F 88% 29.97 in 4.0 mi SW 5.8 mph - 0.37 in Rain , Thunderstorm Light Thunderstorms and Rain
12:58 AM 66.2 °F - 64.4 °F 94% 29.94 in 3.0 mi Variable 3.5 mph - 0.02 in Rain , Thunderstorm Thunderstorms and Rain
1:13 AM 66.2 °F - 64.4 °F 94% 29.96 in 10.0 mi NW 9.2 mph - 0.02 in Rain , Thunderstorm Light Rain
1:36 AM 66.2 °F - 64.4 °F 94% 29.97 in 10.0 mi WNW 6.9 mph - 0.03 in   Overcast
1:53 AM 66.9 °F - 64.0 °F 90% 29.89 in 10.0 mi WNW 5.8 mph - 0.03 in   Mostly Cloudy
2:53 AM 64.9 °F - 64.0 °F 97% 29.90 in 10.0 mi Calm Calm - N/A   Clear
3:53 AM 64.9 °F - 64.0 °F 97% 29.90 in 10.0 mi Calm Calm - N/A   Mostly Cloudy
4:05 AM 66.2 °F - 64.4 °F 94% 29.96 in 10.0 mi Calm Calm - N/A   Mostly Cloudy
4:53 AM 66.9 °F - 64.0 °F 90% 29.92 in 10.0 mi Calm Calm - N/A   Overcast
5:11 AM 66.2 °F - 64.4 °F 94% 29.99 in 10.0 mi Calm Calm - N/A   Overcast
5:44 AM 66.2 °F - 64.4 °F 94% 30.00 in 9.0 mi Calm Calm - N/A   Overcast
5:53 AM 66.9 °F - 66.0 °F 97% 29.95 in 10.0 mi Calm Calm - N/A   Overcast
6:48 AM 66.2 °F - 64.4 °F 94% 30.02 in 5.0 mi West 4.6 mph - N/A   Overcast
6:53 AM 66.9 °F - 64.9 °F 93% 29.97 in 6.0 mi West 3.5 mph - N/A   Overcast
7:26 AM 68.0 °F - 66.2 °F 94% 30.02 in 5.0 mi NW 3.5 mph - N/A   Scattered Clouds
7:53 AM 71.1 °F - 68.0 °F 90% 29.97 in 5.0 mi WNW 3.5 mph - N/A   Clear
8:53 AM 73.0 °F - 66.9 °F 81% 29.97 in 6.0 mi Calm Calm - N/A   Haze
9:04 AM 73.4 °F - 66.2 °F 78% 30.03 in 6.0 mi WNW 4.6 mph - N/A   Haze
9:23 AM 73.4 °F - 68.0 °F 83% 30.03 in 6.0 mi NW 6.9 mph - N/A   Haze
9:40 AM 75.2 °F - 68.0 °F 78% 30.04 in 6.0 mi North 5.8 mph - N/A   Haze
9:53 AM 75.0 °F - 68.0 °F 79% 29.98 in 6.0 mi Calm Calm - N/A   Haze
10:20 AM 77.0 °F - 68.0 °F 74% 30.05 in 8.0 mi Variable 4.6 mph - N/A   Mostly Cloudy
10:53 AM 79.0 °F - 66.9 °F 66% 29.99 in 10.0 mi NNW 10.4 mph - N/A   Mostly Cloudy
11:53 AM 79.0 °F - 64.9 °F 62% 29.98 in 10.0 mi North 8.1 mph - N/A   Scattered Clouds
12:53 PM 80.1 °F 81.7 °F 64.0 °F 58% 29.97 in 9.0 mi NNW 10.4 mph 17.3 mph N/A   Partly Cloudy
1:53 PM 82.0 °F 82.7 °F 61.0 °F 49% 29.96 in 10.0 mi West 6.9 mph - N/A   Partly Cloudy
2:53 PM 80.1 °F 81.9 °F 64.9 °F 60% 29.96 in 10.0 mi North 5.8 mph - N/A   Mostly Cloudy
3:53 PM 79.0 °F - 63.0 °F 58% 29.96 in 10.0 mi North 6.9 mph - N/A   Partly Cloudy
4:53 PM 79.0 °F - 62.1 °F 56% 29.95 in 10.0 mi NNW 10.4 mph - N/A   Clear
5:53 PM 78.1 °F - 61.0 °F 56% 29.96 in - North 6.9 mph - N/A   Unknown
6:53 PM 73.9 °F - 61.0 °F 64% 29.98 in 10.0 mi Calm Calm - N/A   Clear
7:53 PM 69.1 °F - 62.1 °F 78% 30.00 in 10.0 mi Calm Calm - N/A   Clear
8:53 PM 69.1 °F - 61.0 °F 75% 30.03 in 10.0 mi North 3.5 mph - N/A   Clear
9:53 PM 64.0 °F - 61.0 °F 90% 30.04 in 10.0 mi Calm Calm - N/A   Clear
10:53 PM 64.9 °F - 61.0 °F 87% 30.04 in 10.0 mi Calm Calm - N/A   Clear
11:53 PM 63.0 °F - 60.1 °F 90% 30.05 in 10.0 mi Calm Calm - N/A   Clear